Total_Precipitation_Accumulation
1.01 0.81 0.81 0.69 0.60 0.55 0.54 0.74 0.68 0.71 0.71 0.82 0.79 0.86 0.83 0.84 1.20 2.12 1.93 1.22 1.52 1.74 0.75 0.45 0.36 0.34 0.18 0.24 0.39 0.39 0.63 0.76 0.68 0.50 0.23 0.15 0.14 0.11 0.25 0.25 0.21 0.21 0.31 0.31 0.38 0.44 0.20 0.06 0.12 0.22 0.30 0.16 0.09 0.11
1.33 1.07 0.78 0.62 0.62 0.52 0.57 0.63 0.62 0.63 0.69 0.81 0.69 0.67 0.73 0.84 1.20 2.04 2.33 1.34 1.41 1.81 1.09 0.58 0.34 0.32 0.21 0.18 0.35 0.49 0.64 0.48 0.42 0.51 0.26 0.23 0.20 0.17 0.13 0.36 0.22 0.46 0.25 0.22 0.16 0.22 0.27 0.21 0.29 0.27 0.17 0.20 0.21 0.16
1.48 1.02 0.67 0.56 0.55 0.56 0.51 0.56 0.55 0.60 0.71 0.81 0.75 0.67 0.76 0.92 1.25 2.11 2.18 1.34 2.67 2.90 1.32 0.64 0.52 0.28 0.23 0.16 0.30 0.60 0.33 0.38 0.63 0.67 0.62 0.45 0.35 0.19 0.21 0.22 0.29 0.53 0.66 0.74 0.79 0.64 0.34 0.38 0.34 0.16 0.19 0.27 0.23 0.15
1.29 1.07 0.70 0.47 0.47 0.52 0.49 0.54 0.57 0.63 0.67 0.83 0.80 0.86 1.03 1.09 1.37 2.14 2.05 1.61 2.51 2.32 1.73 0.79 0.34 0.26 0.21 0.18 0.16 0.25 0.29 0.31 0.45 0.62 0.64 0.61 0.33 0.20 0.31 0.26 0.26 0.37 0.54 0.66 1.10 0.78 0.55 0.46 0.93 0.48 0.22 0.15 0.11 0.05
1.38 1.04 0.66 0.42 0.42 0.46 0.49 0.60 0.62 0.70 0.86 0.87 0.85 1.06 1.36 1.35 1.53 2.01 1.92 1.77 1.61 1.68 1.66 0.94 0.30 0.24 0.33 0.32 0.27 0.27 0.34 0.42 0.66 1.03 0.77 0.31 0.21 0.27 0.29 0.54 0.37 0.16 0.40 0.79 1.01 1.18 1.01 0.90 0.79 0.69 0.49 0.31 0.16 0.07
1.29 0.94 0.68 0.46 0.40 0.40 0.40 0.47 0.49 0.63 0.78 0.87 0.92 1.29 1.30 1.31 2.06 3.13 4.60 2.97 1.55 1.39 1.91 1.25 0.68 0.19 0.33 0.40 0.60 0.40 0.45 0.71 0.95 1.14 0.89 0.40 0.31 0.56 0.44 0.62 0.52 0.54 0.35 0.35 0.61 0.75 1.05 0.94 0.57 0.30 0.22 0.15 0.06 0.04
1.13 0.86 0.70 0.55 0.39 0.33 0.33 0.37 0.43 0.56 0.74 0.92 1.10 1.06 1.23 1.44 2.21 2.22 2.19 1.58 1.03 1.46 2.14 1.33 0.87 0.56 0.46 0.71 0.67 0.74 0.70 1.16 1.14 1.31 1.02 0.55 0.39 0.74 0.76 0.52 0.32 0.24 0.15 0.10 0.13 0.23 0.24 0.16 0.12 0.03 0.02 0.02 0.02 0.01
1.04 0.81 0.65 0.49 0.52 0.41 0.38 0.45 0.52 0.63 0.79 1.07 1.36 1.32 1.59 2.07 2.55 1.58 0.84 0.73 0.87 1.67 1.43 1.38 0.84 1.05 0.58 1.08 0.86 0.75 0.94 1.23 1.27 1.05 0.72 0.48 0.60 1.05 1.06 0.27 0.06 0.02 0.02 0.03 0.05 0.06 0.05 0.04 0.02 0.02 0.02 0.02 0.02 0.02
0.54 0.52 0.52 0.51 0.51 0.56 0.64 0.71 0.74 0.92 1.24 1.42 1.78 2.49 3.60 3.48 2.66 1.76 1.06 1.14 1.23 1.52 1.29 0.78 0.70 1.36 0.91 1.22 1.38 0.92 0.81 1.04 0.91 0.95 0.68 0.69 0.78 1.25 0.81 0.26 0.09 0.03 0.02 0.03 0.02 0.04 0.08 0.10 0.11 0.11 0.10 0.11 0.16 0.28
0.46 0.48 0.48 0.47 0.45 0.52 0.58 0.76 1.01 1.35 1.52 1.93 3.07 3.60 3.79 2.47 1.81 2.03 2.85 2.79 2.36 1.20 0.67 0.55 0.54 1.01 1.31 1.20 1.32 1.57 1.16 0.78 0.75 0.62 0.74 1.12 0.94 0.47 0.14 0.07 0.13 0.16 0.16 0.11 0.07 0.09 0.11 0.14 0.15 0.20 0.27 0.36 0.45 0.44
0.46 0.47 0.54 0.59 0.65 0.72 0.96 1.14 1.00 1.07 2.23 3.25 3.49 2.98 2.82 2.38 1.92 2.39 2.38 1.91 1.41 0.78 0.23 0.29 0.30 0.47 0.93 1.50 1.13 0.97 1.39 1.30 0.75 0.63 0.74 1.04 0.79 0.50 0.17 0.07 0.06 0.08 0.11 0.13 0.15 0.15 0.16 0.20 0.30 0.42 0.43 0.34 0.27 0.29
0.47 0.42 0.36 0.42 0.50 0.64 0.75 0.78 0.92 1.55 2.26 2.21 2.23 2.65 2.79 2.70 2.30 1.79 1.66 0.97 0.58 0.39 0.21 0.25 0.31 0.45 0.95 1.83 1.65 1.04 1.15 1.25 1.22 1.03 0.99 0.79 0.52 0.28 0.27 0.26 0.23 0.20 0.16 0.15 0.17 0.24 0.32 0.40 0.41 0.29 0.24 0.27 0.32 0.37
0.57 0.52 0.46 0.42 0.42 0.46 0.62 1.01 1.31 1.64 1.97 2.20 2.40 2.68 2.38 2.36 2.08 1.54 0.99 0.52 0.48 0.52 0.42 0.30 0.41 0.67 0.72 1.64 1.79 1.26 1.15 1.29 1.17 1.21 1.08 0.75 0.49 0.34 0.33 0.28 0.27 0.26 0.28 0.33 0.40 0.37 0.28 0.27 0.29 0.32 0.42 0.57 0.58 0.64
0.77 0.62 0.54 0.47 0.50 0.65 0.99 1.23 1.72 2.26 2.22 2.36 2.46 2.29 1.88 1.52 1.02 0.85 0.52 0.38 0.47 0.55 0.50 0.36 0.34 0.43 0.65 1.30 2.23 1.72 1.43 0.81 0.97 0.88 0.63 0.66 0.76 0.80 0.63 0.55 0.52 0.59 0.61 0.60 0.64 0.61 0.64 0.66 0.74 0.79 0.78 0.83 0.66 0.74
0.80 0.50 0.43 0.51 0.58 0.72 0.88 1.10 1.53 1.79 1.72 1.40 1.09 1.17 0.92 0.96 0.78 0.70 0.55 0.51 0.63 0.93 0.88 0.88 0.89 0.76 0.82 1.31 1.36 1.07 0.78 0.64 0.54 0.73 0.84 0.92 0.86 0.76 0.60 0.54 0.53 0.58 0.62 0.66 0.71 0.64 0.71 0.73 0.62 0.75 0.81 0.73 0.55 0.57
0.67 0.67 0.58 0.58 0.63 0.65 0.78 1.05 1.33 1.24 0.93 0.57 0.80 1.14 0.90 0.79 0.80 0.75 0.74 0.76 0.85 1.09 1.05 1.00 0.85 0.78 0.94 0.83 0.71 0.76 0.60 0.70 0.83 0.67 0.76 0.75 0.75 0.79 0.85 0.82 0.82 0.84 0.75 0.68 0.65 0.59 0.57 0.54 0.47 0.51 0.52 0.46 0.47 0.38
0.50 0.56 0.52 0.50 0.52 0.62 0.66 0.80 0.83 0.69 0.68 0.57 0.93 1.14 1.04 0.83 0.91 1.02 0.95 0.91 0.84 0.77 0.70 0.46 0.41 0.57 0.58 0.48 0.60 0.65 0.92 0.93 0.86 0.86 0.85 0.84 0.87 0.87 0.85 0.84 0.86 0.75 0.61 0.55 0.53 0.49 0.47 0.44 0.32 0.22 0.29 0.40 0.28 0.24
0.47 0.33 0.29 0.35 0.46 0.63 0.76 0.54 0.40 0.35 0.57 0.82 0.87 1.17 0.88 0.94 0.89 0.87 0.86 0.70 0.53 0.47 0.42 0.41 0.30 0.35 0.58 0.58 0.66 0.71 0.77 0.89 0.93 0.96 1.01 1.08 1.01 0.90 0.80 0.71 0.70 0.57 0.48 0.49 0.42 0.41 0.37 0.29 0.24 0.30 0.23 0.18 0.10 0.09
0.69 0.58 0.45 0.39 0.36 0.36 0.50 0.32 0.14 0.34 0.67 0.76 0.80 0.69 0.59 0.66 0.59 0.58 0.41 0.25 0.16 0.14 0.19 0.25 0.32 0.49 0.70 0.78 0.81 0.77 0.75 0.71 0.78 0.82 0.79 0.83 0.79 0.72 0.66 0.57 0.51 0.49 0.43 0.40 0.32 0.31 0.29 0.24 0.23 0.19 0.16 0.11 0.12 0.13
0.90 0.76 0.59 0.48 0.25 0.22 0.12 0.12 0.03 0.15 0.38 0.44 0.35 0.19 0.15 0.21 0.12 0.05 0.05 0.02 0.03 0.06 0.16 0.33 0.69 0.82 0.78 0.82 0.75 0.74 0.72 0.62 0.47 0.39 0.49 0.59 0.60 0.51 0.57 0.49 0.45 0.40 0.31 0.30 0.27 0.22 0.17 0.15 0.16 0.15 0.14 0.15 0.15 0.16
0.68 0.71 0.61 0.45 0.37 0.19 0.10 0.03 0.06 0.07 0.11 0.19 0.13 0.04 0.07 0.04 0.04 0.04 0.03 0.02 0.06 0.15 0.41 0.61 0.63 0.67 0.47 0.47 0.44 0.43 0.43 0.39 0.40 0.31 0.33 0.41 0.49 0.36 0.37 0.39 0.35 0.33 0.29 0.29 0.25 0.27 0.23 0.25 0.22 0.17 0.16 0.12 0.12 0.10
0.36 0.44 0.49 0.45 0.54 0.28 0.15 0.00 0.02 0.02 0.04 0.11 0.11 0.06 0.07 0.09 0.07 0.05 0.02 0.07 0.30 0.54 0.54 0.40 0.34 0.26 0.19 0.22 0.24 0.21 0.30 0.26 0.31 0.36 0.37 0.29 0.30 0.29 0.33 0.40 0.30 0.32 0.31 0.32 0.27 0.24 0.21 0.16 0.14 0.13 0.09 0.08 0.06 0.06
0.24 0.43 0.43 0.40 0.48 0.26 0.25 0.06 0.05 0.03 0.04 0.09 0.08 0.07 0.06 0.05 0.04 0.02 0.07 0.18 0.46 0.48 0.34 0.19 0.16 0.14 0.14 0.19 0.11 0.09 0.07 0.07 0.12 0.23 0.32 0.31 0.31 0.32 0.31 0.30 0.28 0.25 0.22 0.21 0.18 0.15 0.14 0.11 0.07 0.04 0.04 0.06 0.07 0.05
0.31 0.54 0.55 0.40 0.28 0.25 0.18 0.11 0.05 0.04 0.03 0.05 0.05 0.07 0.06 0.05 0.02 0.03 0.10 0.21 0.38 0.24 0.14 0.16 0.15 0.15 0.13 0.13 0.14 0.18 0.21 0.15 0.17 0.20 0.23 0.19 0.17 0.21 0.16 0.14 0.12 0.12 0.11 0.09 0.06 0.04 0.04 0.03 0.03 0.05 0.06 0.06 0.05 0.07
0.59 0.48 0.42 0.33 0.24 0.11 0.08 0.08 0.07 0.04 0.04 0.03 0.04 0.06 0.05 0.02 0.05 0.06 0.09 0.29 0.26 0.22 0.19 0.17 0.16 0.15 0.17 0.19 0.18 0.17 0.14 0.12 0.10 0.10 0.13 0.11 0.10 0.09 0.06 0.05 0.04 0.05 0.04 0.06 0.06 0.05 0.04 0.05 0.05 0.04 0.04 0.06 0.08 0.09
0.53 0.29 0.22 0.15 0.09 0.09 0.06 0.04 0.03 0.04 0.05 0.09 0.12 0.09 0.05 0.08 0.08 0.15 0.23 0.31 0.26 0.26 0.28 0.28 0.23 0.16 0.14 0.13 0.12 0.11 0.08 0.08 0.05 0.04 0.06 0.02 0.04 0.06 0.05 0.03 0.04 0.06 0.05 0.06 0.08 0.08 0.05 0.04 0.04 0.05 0.07 0.07 0.09 0.12
0.27 0.16 0.07 0.05 0.09 0.14 0.19 0.16 0.15 0.17 0.16 0.17 0.14 0.09 0.13 0.18 0.16 0.29 0.39 0.33 0.27 0.27 0.21 0.19 0.13 0.11 0.12 0.11 0.08 0.06 0.02 0.01 0.01 0.02 0.01 0.02 0.03 0.04 0.06 0.10 0.13 0.12 0.05 0.05 0.08 0.10 0.13 0.11 0.09 0.08 0.09 0.10 0.12 0.17
0.13 0.13 0.16 0.16 0.22 0.23 0.20 0.17 0.19 0.22 0.25 0.21 0.16 0.16 0.17 0.16 0.29 0.42 0.39 0.46 0.28 0.16 0.10 0.07 0.04 0.03 0.03 0.05 0.06 0.06 0.03 0.01 0.01 0.01 0.02 0.07 0.07 0.05 0.04 0.06 0.06 0.04 0.05 0.07 0.09 0.09 0.11 0.13 0.13 0.13 0.13 0.15 0.18 0.22
0.16 0.22 0.23 0.21 0.15 0.10 0.12 0.15 0.16 0.16 0.16 0.12 0.12 0.13 0.16 0.24 0.40 0.39 0.39 0.32 0.18 0.11 0.08 0.09 0.15 0.08 0.05 0.03 0.02 0.02 0.01 0.01 0.01 0.00 0.01 0.04 0.09 0.07 0.04 0.04 0.06 0.05 0.06 0.06 0.06 0.07 0.12 0.15 0.13 0.17 0.20 0.22 0.21 0.18
0.04 0.09 0.12 0.09 0.10 0.13 0.21 0.15 0.16 0.12 0.06 0.04 0.06 0.11 0.16 0.40 0.61 0.42 0.32 0.24 0.19 0.15 0.14 0.12 0.12 0.07 0.07 0.05 0.05 0.06 0.07 0.02 0.02 0.03 0.05 0.05 0.06 0.06 0.06 0.06 0.05 0.05 0.06 0.07 0.05 0.04 0.07 0.07 0.08 0.15 0.11 0.11 0.14 0.13
0.03 0.05 0.06 0.08 0.16 0.22 0.18 0.10 0.10 0.10 0.10 0.08 0.06 0.07 0.21 0.35 0.38 0.33 0.28 0.33 0.14 0.09 0.08 0.09 0.09 0.07 0.04 0.04 0.05 0.04 0.06 0.04 0.03 0.03 0.03 0.04 0.04 0.05 0.05 0.04 0.05 0.06 0.06 0.06 0.06 0.07 0.07 0.07 0.10 0.11 0.07 0.06 0.08 0.08
0.06 0.08 0.07 0.11 0.22 0.19 0.22 0.22 0.13 0.16 0.14 0.09 0.11 0.09 0.14 0.13 0.15 0.20 0.22 0.25 0.17 0.12 0.09 0.07 0.08 0.11 0.07 0.05 0.04 0.04 0.04 0.03 0.03 0.02 0.03 0.05 0.04 0.04 0.03 0.02 0.04 0.06 0.06 0.06 0.06 0.08 0.09 0.09 0.09 0.08 0.09 0.07 0.07 0.06
0.04 0.04 0.04 0.04 0.10 0.13 0.13 0.10 0.08 0.09 0.10 0.11 0.16 0.17 0.18 0.12 0.13 0.19 0.20 0.20 0.25 0.12 0.08 0.06 0.07 0.07 0.06 0.02 0.01 0.02 0.01 0.01 0.01 0.02 0.03 0.04 0.02 0.02 0.02 0.03 0.05 0.05 0.06 0.07 0.08 0.09 0.08 0.07 0.07 0.07 0.06 0.06 0.05 0.04